DMSP 5D-2 F13 DEB, 42268

Orbit data source: Space-Track

DMSP 5D-2 F13 DEB, 42268 is space debris in SSO originally from a launch on Fri, 24 Mar 1995 UTC launched from the Air Force Western Test Range (AFWTR). Debris objects in space refer to the collection of defunct objects orbiting the Earth. Examples of debris include non-operational satellites, rocket bodies, and fragments generated from explosions, collisions, or faulty payload assembly.

Loading next visibility...
Identifier
42268, 1995-015GJ
Orbit
SSO
Country
Flag of USUS
Related business
Manufacturer
Unknown
Mission
Spacecraft
Bus & Motor
Unknown
Mass
Unknown
Launch date (UTC)
1995-03-24 (31 years ago)
Launch vehicle
Unknown
Launch site
Air Force Western Test Range (AFWTR)
Object type
Payload
Rocket body
Debris
Shape & HBR
Unknown shape, 0.1 m
Radar Cross Section
Small (<0.1 m²)

Expand to show TLE details & history
Last TLE update: 1 day ago

TLE from 1 day ago
0 DMSP 5D-2 F13 DEB
1 42268U 95015GJ  26072.01703993  .00004729  00000-0  26874-2 0  9992
2 42268  98.7367 274.0737 0116979 264.2737  94.5085 14.06956437553760
Epoch: 2026-03-13T00:24Z
TLE epoch observation values (Epoch: 2026-03-13T00:24:32.249Z)
Latitude
-0.00004°
Longitude
97.28072°
Altitude
880.352 km
Speed
7.408 km/s
True Right ascension
18h 16m 17s
True Declination
0° 00' 00"
Sunlit
Object was in daylight at epoch
Visualization orbit readout
Latitude
Unknown
Longitude
Unknown
Altitude
Unknown
Speed
Unknown
Apparent Right ascension
Unknown
Apparent Declination
Unknown
Sunlit
N/A
Visualization observer readout
Local Sidereal Time
09:37:00
Azimuth
Unknown
Elevation
Unknown
Doppler factor
Unknown
Orbital elements
Apogee altitude
951.735 km
Perigee altitude
782.23 km
Semi-major axis
7,245.119 km
Eccentricity
0.0117
Inclination
98.7367°
RAAN
274.0737°
Arg. of periapsis
264.2737°
True anomaly
95.84318°
Mean anomaly
94.5085°
Eccentric anomaly
95.17601°
Mean motion
3.51945 °/min
Orbital period
102.29 mins
BSTAR
0.0026874
Loading maneuver chart data...
Computing Atmospheric mass density...

Documentation

Showing up to 5 results
|